Change the Weather History Date:

Thursday, April 10, 2014

  Actual Average Record
Temperature  
Mean Temperature 57 °F -  
Max Temperature 70 °F 60 °F 84 °F (1977)
Min Temperature 39 °F 35 °F 17 °F (1952)
Degree Days  
Heating Degree Days 8    
Growing Degree Days 7 (Base 50)    
Moisture  
Dew Point 25 °F    
Average Humidity 34    
Maximum Humidity 65    
Minimum Humidity 14    
Precipitation  
Precipitation 0.00 in - - ()
Sea Level Pressure  
Sea Level Pressure 29.86 in    
Wind  
Wind Speed 13 mph (NNW)    
Max Wind Speed 30 mph    
Max Gust Speed 44 mph    
Visibility 10 miles    
Events      
Averages and records for this station are not official NWS values.
T = Trace of Precipitation, MM = Missing Value Source: NWS Daily Summary

Daily Weather History Graph

Daily Weather History Graph

Search for Another Location

Airport or City:

Trip Planner

Search our weather history database for the weather conditions in past years. The results will help you decide how hot, cold, wet, or windy it might be!

Date:

Astronomy

Apr. 10, 2014 Rise Set
Actual Time 6:52 AM CDT 8:00 PM CDT
Civil Twilight 6:24 AM CDT 8:28 PM CDT
Nautical Twilight 5:49 AM CDT 9:02 PM CDT
Astronomical Twilight 5:14 AM CDT 9:38 PM CDT
Moon 3:41 PM CDT (4/10) 4:19 AM CDT (4/10)
Length of Visible Light 14h 04m
Length of Day
13h 07m
Waxing Gibbous, 80% of the Moon is Illuminated
Apr 10
Waxing Gibbous
Apr 15
Full
Apr 22
Last Quarter
Apr 29
New
May 6
First Quarter

Hourly Weather History & Observations

Time (CDT) Temp. Windchill Dew Point Humidity Pressure Visibility Wind Dir Wind Speed Gust Speed Precip Events Conditions
12:54 AM 50.0 °F - 28.9 °F 44% 29.54 in 10.0 mi SE 8.1 mph - N/A   Clear
1:54 AM 53.1 °F - 33.1 °F 47% 29.61 in 10.0 mi North - - N/A   Clear
2:54 AM 60.1 °F - 32.0 °F 35% 29.60 in 10.0 mi NNW 24.2 mph 33.4 mph N/A   Clear
3:54 AM 57.9 °F - 39.9 °F 51% 29.67 in 10.0 mi North 29.9 mph 43.7 mph N/A   Clear
4:54 AM 54.0 °F - 39.0 °F 57% 29.74 in 10.0 mi North 15.0 mph 25.3 mph N/A   Clear
5:54 AM 48.9 °F - 36.0 °F 61% 29.79 in 10.0 mi NNW 9.2 mph - N/A   Clear
6:54 AM 45.0 °F 39.3 °F 34.0 °F 65% 29.82 in 10.0 mi North 11.5 mph - N/A   Clear
7:54 AM 48.9 °F - 36.0 °F 61% 29.86 in 10.0 mi North 11.5 mph - N/A   Clear
8:54 AM 55.0 °F - 36.0 °F 49% 29.91 in 10.0 mi NNW 17.3 mph - N/A   Clear
9:54 AM 57.9 °F - 27.0 °F 31% 29.91 in 10.0 mi North 16.1 mph - N/A   Mostly Cloudy
10:54 AM 61.0 °F - 28.0 °F 29% 29.94 in 10.0 mi North 16.1 mph - N/A   Partly Cloudy
11:54 AM 61.0 °F - 21.9 °F 22% 29.96 in 10.0 mi North 16.1 mph 25.3 mph N/A   Clear
12:54 PM 64.0 °F - 19.0 °F 18% 29.95 in 10.0 mi North 16.1 mph 23.0 mph N/A   Clear
1:54 PM 66.0 °F - 18.0 °F 16% 29.94 in 10.0 mi NNW 15.0 mph 20.7 mph N/A   Clear
2:54 PM 66.9 °F - 18.0 °F 15% 29.93 in 10.0 mi North 4.6 mph 20.7 mph N/A   Clear
3:54 PM 68.0 °F - 16.0 °F 14% 29.91 in 10.0 mi WNW 11.5 mph - N/A   Clear
4:54 PM 69.1 °F - 18.0 °F 14% 29.91 in 10.0 mi WNW 12.7 mph - N/A   Clear
5:54 PM 68.0 °F - 17.1 °F 14% 29.91 in 10.0 mi NNW 8.1 mph 18.4 mph N/A   Clear
6:54 PM 66.0 °F - 18.0 °F 16% 29.93 in 10.0 mi WNW 8.1 mph - N/A   Clear
7:54 PM 60.1 °F - 23.0 °F 24% 29.94 in 10.0 mi WNW 5.8 mph - N/A   Clear
8:54 PM 54.0 °F - 19.9 °F 26% 29.96 in 10.0 mi Calm Calm - N/A   Clear
9:54 PM 48.0 °F - 18.0 °F 30% 29.98 in 10.0 mi SW 3.5 mph - N/A   Clear
10:54 PM 46.0 °F - 19.9 °F 35% 29.98 in 10.0 mi Calm Calm - N/A   Clear
11:54 PM 39.0 °F - 15.1 °F 38% 29.98 in 10.0 mi Calm Calm - N/A   Clear